Change the Weather History Date:

Sunday, December 23, 2012

  Actual Average Record
Temperature  
Mean Temperature 32 °F -  
Max Temperature 37 °F 36 °F 66 °F (1990)
Min Temperature 26 °F 20 °F -5 °F (1989)
Degree Days  
Heating Degree Days 34    
Moisture  
Dew Point 18 °F    
Average Humidity 61    
Maximum Humidity 82    
Minimum Humidity 41    
Precipitation  
Precipitation 0.00 in - - ()
Sea Level Pressure  
Sea Level Pressure 29.83 in    
Wind  
Wind Speed 8 mph (WSW)    
Max Wind Speed 15 mph    
Max Gust Speed 26 mph    
Visibility 10 miles    
Events      
Averages and records for this station are not official NWS values.
T = Trace of Precipitation, MM = Missing Value Source: NWS Daily Summary

Daily Weather History Graph

Daily Weather History Graph

Search for Another Location

Airport or City:

Trip Planner

Search our weather history database for the weather conditions in past years. The results will help you decide how hot, cold, wet, or windy it might be!

Date:

Astronomy

Dec. 23, 2012 Rise Set
Actual Time 7:12 AM EST 4:16 PM EST
Civil Twilight 6:40 AM EST 4:48 PM EST
Nautical Twilight 6:04 AM EST 5:24 PM EST
Astronomical Twilight 5:30 AM EST 5:58 PM EST
Moon 1:07 PM EST (12/23) 2:49 AM EST (12/23)
Length of Visible Light 10h 08m
Length of Day
9h 04m
Waxing Gibbous, 81% of the Moon is Illuminated
Dec 23
Waxing Gibbous
Dec 28
Full
Jan 4
Last Quarter
Jan 11
New
Jan 18
First Quarter

Hourly Weather History & Observations

Time (EST) Temp. Windchill Dew Point Humidity Pressure Visibility Wind Dir Wind Speed Gust Speed Precip Events Conditions
12:56 AM 28.0 °F 18.1 °F 14.0 °F 56% 29.69 in 10.0 mi West 11.5 mph 19.6 mph N/A   Clear
1:56 AM 28.0 °F 19.3 °F 12.9 °F 53% 29.73 in 10.0 mi West 9.2 mph 17.3 mph N/A   Clear
2:56 AM 27.0 °F 18.0 °F 12.9 °F 56% 29.75 in 10.0 mi West 9.2 mph - N/A   Clear
3:56 AM 26.1 °F 17.6 °F 12.9 °F 58% 29.77 in 10.0 mi West 8.1 mph - N/A   Clear
4:56 AM 26.1 °F 19.4 °F 12.9 °F 58% 29.79 in 10.0 mi West 5.8 mph - N/A   Clear
5:56 AM 26.1 °F 19.4 °F 14.0 °F 60% 29.82 in 10.0 mi West 5.8 mph - N/A   Clear
6:56 AM 27.0 °F 23.0 °F 14.0 °F 58% 29.83 in 10.0 mi WSW 3.5 mph - N/A   Clear
7:56 AM 28.0 °F 24.2 °F 15.1 °F 58% 29.86 in 10.0 mi WSW 3.5 mph - N/A   Clear
8:56 AM 32.0 °F 23.6 °F 15.1 °F 50% 29.86 in 10.0 mi WSW 10.4 mph 19.6 mph N/A   Clear
9:56 AM 34.0 °F 25.0 °F 14.0 °F 44% 29.88 in 10.0 mi West 12.7 mph 20.7 mph N/A   Clear
10:56 AM 36.0 °F 28.0 °F 14.0 °F 41% 29.87 in 10.0 mi West 11.5 mph 24.2 mph N/A   Clear
11:56 AM 37.0 °F 30.4 °F 17.1 °F 44% 29.85 in 10.0 mi SW 9.2 mph - N/A   Clear
12:56 PM 36.0 °F 28.5 °F 19.0 °F 50% 29.83 in 10.0 mi WSW 10.4 mph - N/A   Overcast
1:56 PM 37.9 °F 29.2 °F 21.9 °F 53% 29.83 in 10.0 mi WSW 15.0 mph 26.5 mph N/A   Mostly Cloudy
2:56 PM 36.0 °F 29.0 °F 23.0 °F 59% 29.83 in 10.0 mi WSW 9.2 mph - N/A   Mostly Cloudy
3:56 PM 35.1 °F 27.9 °F 21.9 °F 59% 29.83 in 10.0 mi WSW 9.2 mph - N/A   Partly Cloudy
4:56 PM 34.0 °F - 21.9 °F 61% 29.86 in 10.0 mi Calm Calm - N/A   Scattered Clouds
5:56 PM 28.9 °F - 23.0 °F 78% 29.86 in 10.0 mi Calm Calm - N/A   Partly Cloudy
6:56 PM 27.0 °F - 21.9 °F 81% 29.87 in 10.0 mi Calm Calm - N/A   Mostly Cloudy
7:56 PM 28.9 °F - 24.1 °F 82% 29.87 in 10.0 mi Calm Calm - N/A   Overcast
8:56 PM 30.9 °F 26.2 °F 24.1 °F 76% 29.87 in 10.0 mi SSW 4.6 mph - N/A   Partly Cloudy
9:56 PM 32.0 °F 24.2 °F 23.0 °F 69% 29.88 in 10.0 mi SW 9.2 mph - N/A   Clear
10:56 PM 30.0 °F 24.1 °F 21.9 °F 72% 29.90 in 10.0 mi SW 5.8 mph - N/A   Clear
11:56 PM 28.0 °F 20.0 °F 21.9 °F 78% 29.89 in 10.0 mi SSW 8.1 mph - N/A   Clear